Terug naar catalogus

STARLINK-38172

ActiefCommunicatieSSO
NORAD 100214·PAYLOAD·🇺🇸 United States

Gelanceerd Aug 4, 2026 vanaf Vandenberg Space Force Base

Loading…

Volgende Passages (komende 24 uur)

TLE

VersSource: Space-Track

Epoch: Sep 14, 2026, 22:44 UTC

1 A0214U 26177B   26257.94741834 -.00471268  00000-0 -88921-2 0  9992
2 A0214  97.2838 308.7304 0001773  76.8459 283.2991 15.50128255  6507

Volg STARLINK-38172 in realtime met AllMySat

Download on the App Store